VIZARD-METEO (RS38S) (57189 NORAD) Tracking and Keplerian Element Data

This shows tracking and keplerian element data for the satellite.

Feedback or suggestion? Click here.




ElementValue
Catalog57189
NameVIZARD-METEO (RS38S)
Epoch Orbit7134
Epoch Day286.85874761
Epoch Year2024
RAAN339.651
Inclination97.6002
Eccentricity0.0012815
Argument of Perigee65.9164
Mean Anonmoly294.3407
Mean Motion15.14495314
Decay Rate0.00018622
L11 57189U 23091Z 24286.85874761 .00018622 00000+0 10115-2 0 9991
L22 57189 97.6002 339.6510 0012815 65.9164 294.3407 15.14495314 71342



Live tracking and technical data element details for VIZARD-METEO (RS38S) (NORAD 57189). VIZARD-METEO (RS38S) can be tracked NOW for your location showing map with azimuth and elevation plus other details from your city location.







IsCatalogInMostPopularTable: catalog: 57189, numindb: 30
Update: records affected: 1



GetName: 57189 VIZARD-METEO (RS38S)

Hit Count: updated at: Thu, 23 Jan 2025 17:49:26 GMT